This is the latest recevied weather packets stored in our database for station/object N8SHA. If no packets are shown the sender has not sent any weather packets the latest 10 day(s).
| Time | Temp. | Humidity | Pressure | Rain* | Wind** | Luminosity | Snow |
|---|---|---|---|---|---|---|---|
| 1777140134 | 8.33° C | 91% | 1014.4 hPa | 0 mm | - | 207 W/m² | - |
| 1777139832 | 8.33° C | 91% | 1014.3 hPa | 0 mm | - | 205 W/m² | - |
| 1777139529 | 8.33° C | 92% | 1014.4 hPa | 0 mm | - | 192 W/m² | - |
| 1777139223 | 8.33° C | 92% | 1014.5 hPa | 0 mm | - | 183 W/m² | - |
| 1777138921 | 8.33° C | 92% | 1014.4 hPa | 0 mm | - | 181 W/m² | - |
| 1777138617 | 7.78° C | 93% | 1014.5 hPa | 0 mm | - | 184 W/m² | - |
| 1777138312 | 7.78° C | 93% | 1014.7 hPa | 0 mm | - | 155 W/m² | - |
| 1777138009 | 7.78° C | 93% | 1014.5 hPa | 0 mm | - | 137 W/m² | - |
| 1777137705 | 7.78° C | 93% | 1014.6 hPa | 0 mm | - | 157 W/m² | - |
| 1777137402 | 8.33° C | 94% | 1014.6 hPa | 0 mm | - | 132 W/m² | - |
| 1777137098 | 7.78° C | 93% | 1014.5 hPa | 0 mm | - | 149 W/m² | - |
| 1777136795 | 8.33° C | 94% | 1014.5 hPa | 0 mm | - | 141 W/m² | - |
| 1777136493 | 8.33° C | 94% | 1014.6 hPa | 0 mm | - | 176 W/m² | - |
| 1777136190 | 7.78° C | 94% | 1014.4 hPa | 0 mm | - | 167 W/m² | - |
| 1777135886 | 7.78° C | 94% | 1014.3 hPa | 0 mm | - | 185 W/m² | - |
| 1777135582 | 7.78° C | 95% | 1014.6 hPa | 0 mm | - | 151 W/m² | - |
| 1777135279 | 7.78° C | 95% | 1014.5 hPa | 0 mm | - | 140 W/m² | - |
| 1777134976 | 7.78° C | 95% | 1014.5 hPa | 0 mm | - | 127 W/m² | - |
| 1777134673 | 7.78° C | 95% | 1014.5 hPa | 0 mm | - | 131 W/m² | - |
| 1777134369 | 7.78° C | 95% | 1014.4 hPa | 0 mm | - | 115 W/m² | - |
| 1777134065 | 7.78° C | 95% | 1014.4 hPa | 0 mm | - | 129 W/m² | - |
| 1777133762 | 7.78° C | 95% | 1014.4 hPa | 0 mm | - | 134 W/m² | - |
| 1777133457 | 7.78° C | 95% | 1014.3 hPa | 0 mm | - | 112 W/m² | - |
| 1777133156 | 7.78° C | 96% | 1014.4 hPa | 0 mm | - | 114 W/m² | - |
| 1777132852 | 7.78° C | 97% | 1014.3 hPa | 0 mm | - | 132 W/m² | - |
* Rain latest hour (hover to see other rain measurements)
** Current wind speed in m/s (hover to see current wind gust speed)